When you browse on this site, cookies collect data to enhance your experience and personalize the content and advertising you see.
Visit our Privacy Policy to learn more. By continuing to use the site, you agree to this use of cookies and data.
  • In Austria
  • List of Countries
  • For 7 days
  • Water Temperature
  • Weather Map
  • News
  • Weather Widgets
  • user-avatar
    Login

    Hourly Weather Kuvay

    Today, 24 January, Friday

    Time Temperature Precipitation Wind Pressure Humidity
    00:00 -8°C° 0.3 mm 2 mps 733 mmHg 96%
    01:00 -8°C° 0.3 mm 2 mps 734 mmHg 96%
    02:00 -9°C° 0.2 mm 3 mps 734 mmHg 96%
    03:00 -10°C° 0.2 mm 3 mps 735 mmHg 95%
    04:00 -12°C° 0 mm 3 mps 735 mmHg 96%
    05:00 -14°C° 0 mm 3 mps 735 mmHg 97%
    06:00 -15°C° 0 mm 3 mps 736 mmHg 97%
    07:00 -16°C° 0 mm 3 mps 736 mmHg 98%
    08:00 -17°C° 0 mm 3 mps 737 mmHg 97%
    09:00 -17°C° 0 mm 3 mps 738 mmHg 97%
    10:00 -16°C° 0 mm 2 mps 738 mmHg 97%
    11:00 -15°C° 0 mm 2 mps 739 mmHg 96%
    12:00 -14°C° 0 mm 2 mps 739 mmHg 96%
    13:00 -14°C° 0 mm 2 mps 740 mmHg 95%
    14:00 -14°C° 0 mm 2 mps 740 mmHg 96%
    15:00 -15°C° 0 mm 2 mps 740 mmHg 96%
    16:00 -16°C° 0 mm 3 mps 741 mmHg 96%
    17:00 -17°C° 0 mm 3 mps 741 mmHg 97%
    18:00 -18°C° 0 mm 3 mps 741 mmHg 97%
    19:00 -18°C° 0 mm 3 mps 742 mmHg 98%
    20:00 -19°C° 0 mm 3 mps 742 mmHg 98%
    21:00 -19°C° 0 mm 3 mps 742 mmHg 97%
    22:00 -20°C° 0 mm 4 mps 742 mmHg 97%
    23:00 -20°C° 0 mm 4 mps 742 mmHg 97%

    Tomorrow, 25 January, Saturday

    Time Temperature Precipitation Wind Pressure Humidity
    00:00 -21°C° 0 mm 5 mps 742 mmHg 97%
    01:00 -21°C° 0 mm 5 mps 741 mmHg 97%
    02:00 -22°C° 0 mm 6 mps 741 mmHg 96%
    03:00 -21°C° 0 mm 6 mps 740 mmHg 96%
    04:00 -21°C° 0 mm 7 mps 740 mmHg 95%
    05:00 -20°C° 0.1 mm 7 mps 739 mmHg 94%
    06:00 -19°C° 0.1 mm 8 mps 739 mmHg 94%
    07:00 -18°C° 0.1 mm 8 mps 738 mmHg 93%
    08:00 -16°C° 0.4 mm 8 mps 737 mmHg 93%
    09:00 -15°C° 0.4 mm 9 mps 737 mmHg 93%
    10:00 -14°C° 0.4 mm 9 mps 736 mmHg 93%
    11:00 -12°C° 0.3 mm 9 mps 736 mmHg 93%
    12:00 -11°C° 0.3 mm 9 mps 735 mmHg 93%
    13:00 -10°C° 0.3 mm 9 mps 735 mmHg 93%
    14:00 -9°C° 0.3 mm 9 mps 734 mmHg 93%
    15:00 -8°C° 0.3 mm 8 mps 734 mmHg 94%
    16:00 -7°C° 0.3 mm 8 mps 734 mmHg 94%
    17:00 -7°C° 0.1 mm 7 mps 734 mmHg 94%
    18:00 -7°C° 0.1 mm 7 mps 734 mmHg 94%
    19:00 -5°C° 0.1 mm 6 mps 734 mmHg 94%
    20:00 -5°C° 0.3 mm 6 mps 733 mmHg 95%
    21:00 -4°C° 0.3 mm 7 mps 733 mmHg 96%
    22:00 -3°C° 0.3 mm 7 mps 732 mmHg 97%
    23:00 -4°C° 0.5 mm 8 mps 732 mmHg 97%

    Day after tomorrow, 26 January, Sunday

    Time Temperature Precipitation Wind Pressure Humidity
    00:00 -4°C° 0.5 mm 8 mps 731 mmHg 97%
    01:00 -4°C° 0.5 mm 9 mps 731 mmHg 97%
    02:00 -4°C° 0.5 mm 9 mps 730 mmHg 97%
    03:00 -4°C° 0.5 mm 9 mps 729 mmHg 97%
    04:00 -4°C° 0.5 mm 9 mps 728 mmHg 96%
    05:00 -5°C° 0.6 mm 9 mps 727 mmHg 96%
    06:00 -5°C° 0.6 mm 9 mps 727 mmHg 96%
    07:00 -5°C° 0.6 mm 9 mps 726 mmHg 96%
    08:00 -6°C° 0.4 mm 9 mps 726 mmHg 93%
    09:00 -7°C° 0.4 mm 8 mps 726 mmHg 90%
    10:00 -7°C° 0.4 mm 8 mps 726 mmHg 88%
    11:00 -8°C° 0.1 mm 8 mps 727 mmHg 89%
    12:00 -8°C° 0.1 mm 8 mps 727 mmHg 91%
    13:00 -10°C° 0.1 mm 9 mps 727 mmHg 93%
    14:00 -9°C° 0.4 mm 9 mps 728 mmHg 92%
    15:00 -9°C° 0.4 mm 9 mps 729 mmHg 90%
    16:00 -8°C° 0.4 mm 9 mps 730 mmHg 89%
    17:00 -9°C° 0.1 mm 9 mps 731 mmHg 89%
    18:00 -10°C° 0.1 mm 9 mps 732 mmHg 90%
    19:00 -11°C° 0.1 mm 8 mps 733 mmHg 90%
    20:00 -12°C° 0 mm 8 mps 734 mmHg 91%
    21:00 -12°C° 0 mm 7 mps 736 mmHg 92%
    22:00 -12°C° 0 mm 6 mps 737 mmHg 93%
    23:00 -14°C° 0 mm 6 mps 738 mmHg 93%

    27 January, Monday

    Time Temperature Precipitation Wind Pressure Humidity
    00:00 -13°C° 0 mm 5 mps 738 mmHg 93%
    01:00 -13°C° 0 mm 5 mps 739 mmHg 94%
    02:00 -13°C° 0.1 mm 5 mps 740 mmHg 94%
    03:00 -14°C° 0.1 mm 6 mps 740 mmHg 93%
    04:00 -14°C° 0.1 mm 6 mps 740 mmHg 93%
    05:00 -14°C° 0 mm 6 mps 741 mmHg 93%
    06:00 -14°C° 0 mm 5 mps 741 mmHg 94%
    07:00 -14°C° 0 mm 5 mps 741 mmHg 95%
    08:00 -14°C° 0 mm 5 mps 741 mmHg 95%
    09:00 -14°C° 0 mm 4 mps 741 mmHg 95%
    10:00 -14°C° 0 mm 4 mps 742 mmHg 95%
    11:00 -13°C° 0.2 mm 5 mps 741 mmHg 95%
    12:00 -12°C° 0.2 mm 5 mps 741 mmHg 94%
    13:00 -11°C° 0.2 mm 5 mps 740 mmHg 94%
    14:00 -11°C° 0.4 mm 5 mps 740 mmHg 94%
    15:00 -10°C° 0.4 mm 6 mps 739 mmHg 94%
    16:00 -9°C° 0.4 mm 6 mps 739 mmHg 94%
    17:00 -8°C° 0.4 mm 6 mps 739 mmHg 95%
    18:00 -5°C° 0.4 mm 6 mps 739 mmHg 95%
    19:00 -4°C° 0.4 mm 7 mps 739 mmHg 96%
    20:00 -5°C° 0.1 mm 6 mps 739 mmHg 95%
    21:00 -8°C° 0.1 mm 6 mps 740 mmHg 93%
    22:00 -8°C° 0.1 mm 5 mps 740 mmHg 92%
    23:00 -11°C° 0 mm 5 mps 741 mmHg 94%

    28 January, Tuesday

    Time Temperature Precipitation Wind Pressure Humidity
    00:00 -11°C° 0 mm 4 mps 742 mmHg 95%
    01:00 -14°C° 0 mm 4 mps 743 mmHg 96%
    02:00 -14°C° 0 mm 4 mps 743 mmHg 96%
    03:00 -14°C° 0 mm 4 mps 744 mmHg 96%
    04:00 -14°C° 0 mm 5 mps 745 mmHg 96%
    05:00 -16°C° 0 mm 4 mps 745 mmHg 96%
    06:00 -17°C° 0 mm 4 mps 746 mmHg 96%
    07:00 -18°C° 0 mm 4 mps 747 mmHg 96%
    08:00 -18°C° 0 mm 3 mps 748 mmHg 95%
    09:00 -18°C° 0 mm 3 mps 749 mmHg 95%
    10:00 -18°C° 0 mm 2 mps 750 mmHg 95%
    11:00 -17°C° 0 mm 2 mps 750 mmHg 93%
    12:00 -17°C° 0 mm 2 mps 751 mmHg 92%
    13:00 -16°C° 0 mm 2 mps 751 mmHg 91%
    14:00 -16°C° 0 mm 2 mps 751 mmHg 90%
    15:00 -15°C° 0 mm 1 mps 752 mmHg 90%
    16:00 -15°C° 0 mm 1 mps 752 mmHg 89%
    17:00 -15°C° 0 mm 1 mps 753 mmHg 88%
    18:00 -16°C° 0 mm 1 mps 753 mmHg 87%
    19:00 -16°C° 0 mm 1 mps 753 mmHg 85%
    20:00 -16°C° 0 mm 1 mps 754 mmHg 84%
    21:00 -16°C° 0 mm 1 mps 754 mmHg 84%
    22:00 -18°C° 0 mm 2 mps 754 mmHg 83%
    23:00 -18°C° 0 mm 2 mps 755 mmHg 83%

    29 January, Wednesday

    Time Temperature Precipitation Wind Pressure Humidity
    00:00 -18°C° 0 mm 2 mps 755 mmHg 82%
    01:00 -18°C° 0 mm 2 mps 755 mmHg 82%
    02:00 -18°C° 0 mm 2 mps 755 mmHg 81%
    03:00 -18°C° 0 mm 2 mps 755 mmHg 81%
    04:00 -17°C° 0 mm 2 mps 755 mmHg 80%
    05:00 -18°C° 0 mm 3 mps 755 mmHg 80%
    06:00 -19°C° 0 mm 3 mps 755 mmHg 80%
    07:00 -19°C° 0 mm 3 mps 756 mmHg 79%
    08:00 -18°C° 0 mm 3 mps 756 mmHg 78%
    09:00 -18°C° 0 mm 3 mps 756 mmHg 77%
    10:00 -19°C° 0 mm 4 mps 756 mmHg 76%
    11:00 -18°C° 0 mm 4 mps 756 mmHg 76%
    12:00 -17°C° 0 mm 4 mps 756 mmHg 75%
    13:00 -16°C° 0 mm 4 mps 756 mmHg 74%
    14:00 -16°C° 0 mm 4 mps 756 mmHg 74%
    15:00 -18°C° 0 mm 5 mps 756 mmHg 75%
    16:00 -18°C° 0 mm 5 mps 755 mmHg 76%
    17:00 -18°C° 0 mm 5 mps 756 mmHg 76%
    18:00 -17°C° 0 mm 6 mps 756 mmHg 75%
    19:00 -17°C° 0 mm 6 mps 756 mmHg 75%
    20:00 -17°C° 0 mm 6 mps 756 mmHg 77%
    21:00 -17°C° 0 mm 6 mps 756 mmHg 78%
    22:00 -17°C° 0 mm 6 mps 756 mmHg 80%
    23:00 -19°C° 0 mm 7 mps 756 mmHg 84%
    Show more